Time,TemperatureF,DewpointF,PressureIn,WindDirection,WindDirectionDegrees,WindSpeedMPH,WindSpeedGustMPH,Humidity,HourlyPrecipIn,Conditions,Clouds,dailyrainin,SoftwareType,DateUTC
2013-03-21 00:03:00,23.0,20.0,29.90,North,1,0.0,0.0,89,0.00,,,0.06,,2013-03-21 04:03:00,
2013-03-21 00:13:00,23.0,20.0,29.90,North,1,0.0,0.0,89,0.00,,,0.06,,2013-03-21 04:13:00,
2013-03-21 00:23:00,22.0,19.0,29.90,North,1,0.0,0.0,89,0.00,,,0.06,,2013-03-21 04:23:00,
2013-03-21 00:33:00,22.0,20.0,29.90,North,4,0.0,0.0,90,0.00,,,0.06,,2013-03-21 04:33:00,
2013-03-21 00:43:00,22.0,20.0,29.90,North,4,0.0,0.0,90,0.00,,,0.06,,2013-03-21 04:43:00,
2013-03-21 00:53:00,22.0,20.0,29.90,North,1,0.0,0.0,90,0.00,,,0.06,,2013-03-21 04:53:00,
2013-03-21 01:03:00,22.0,20.0,29.91,North,1,0.0,0.0,90,0.00,,,0.06,,2013-03-21 05:03:00,
2013-03-21 01:12:00,22.0,20.0,29.91,North,1,0.0,0.0,90,0.00,,,0.06,,2013-03-21 05:12:00,
2013-03-21 01:22:00,23.0,21.0,29.91,North,1,0.0,0.0,90,0.00,,,0.06,,2013-03-21 05:22:00,
2013-03-21 01:33:00,24.0,21.0,29.91,North,1,0.0,0.0,89,0.00,,,0.06,,2013-03-21 05:33:00,
2013-03-21 01:44:00,24.0,21.0,29.91,North,1,0.0,0.0,89,0.00,,,0.06,,2013-03-21 05:44:00,
2013-03-21 01:52:00,24.0,21.0,29.91,North,1,0.0,0.0,88,0.00,,,0.06,,2013-03-21 05:52:00,
2013-03-21 02:03:00,25.0,22.0,29.90,North,1,0.0,0.0,88,0.00,,,0.06,,2013-03-21 06:03:00,
2013-03-21 02:12:00,25.0,22.0,29.90,North,1,0.0,0.0,88,0.00,,,0.06,,2013-03-21 06:12:00,
2013-03-21 02:22:00,25.0,22.0,29.90,North,1,0.0,0.0,87,0.00,,,0.06,,2013-03-21 06:22:00,
2013-03-21 02:32:00,25.0,22.0,29.90,North,1,0.0,0.0,88,0.00,,,0.06,,2013-03-21 06:32:00,
2013-03-21 02:42:00,25.0,22.0,29.90,North,1,0.0,0.0,88,0.00,,,0.06,,2013-03-21 06:42:00,
2013-03-21 02:52:00,25.0,22.0,29.90,North,1,0.0,0.0,88,0.00,,,0.06,,2013-03-21 06:52:00,
2013-03-21 03:02:00,25.0,22.0,29.89,North,1,0.0,0.0,87,0.00,,,0.06,,2013-03-21 07:02:00,
2013-03-21 03:13:00,25.0,22.0,29.89,North,1,0.0,0.0,87,0.00,,,0.06,,2013-03-21 07:13:00,
2013-03-21 03:22:00,25.0,22.0,29.88,North,1,0.0,0.0,88,0.00,,,0.06,,2013-03-21 07:22:00,
2013-03-21 03:32:00,25.0,22.0,29.88,North,1,0.0,0.0,88,0.00,,,0.06,,2013-03-21 07:32:00,
2013-03-21 03:42:00,25.0,22.0,29.88,North,1,0.0,0.0,88,0.00,,,0.06,,2013-03-21 07:42:00,
2013-03-21 03:53:00,24.0,21.0,29.88,North,1,0.0,0.0,89,0.00,,,0.06,,2013-03-21 07:53:00,
2013-03-21 04:02:00,24.0,21.0,29.87,North,1,0.0,0.0,89,0.00,,,0.06,,2013-03-21 08:02:00,
2013-03-21 04:13:00,24.0,21.0,29.87,North,1,0.0,0.0,89,0.00,,,0.06,,2013-03-21 08:13:00,
2013-03-21 04:23:00,24.0,22.0,29.87,North,1,0.0,0.0,90,0.00,,,0.06,,2013-03-21 08:23:00,
2013-03-21 04:33:00,24.0,22.0,29.86,North,1,0.0,0.0,90,0.00,,,0.06,,2013-03-21 08:33:00,
2013-03-21 04:42:00,24.0,22.0,29.86,North,1,0.0,0.0,90,0.00,,,0.06,,2013-03-21 08:42:00,
2013-03-21 04:52:00,24.0,22.0,29.86,North,360,0.0,0.0,90,0.00,,,0.06,,2013-03-21 08:52:00,
2013-03-21 05:02:00,25.0,22.0,29.86,North,360,0.0,0.0,89,0.00,,,0.06,,2013-03-21 09:02:00,
2013-03-21 05:11:00,25.0,22.0,29.86,North,360,0.0,0.0,89,0.00,,,0.06,,2013-03-21 09:11:00,
2013-03-21 05:22:00,25.0,22.0,29.85,North,360,0.0,0.0,88,0.00,,,0.06,,2013-03-21 09:22:00,
2013-03-21 05:33:00,25.0,22.0,29.85,North,360,0.0,0.0,88,0.00,,,0.06,,2013-03-21 09:33:00,
2013-03-21 05:43:00,25.0,22.0,29.85,North,360,0.0,0.0,88,0.00,,,0.06,,2013-03-21 09:43:00,
2013-03-21 05:53:00,24.0,21.0,29.85,North,359,0.0,0.0,89,0.00,,,0.06,,2013-03-21 09:53:00,
2013-03-21 06:03:00,24.0,21.0,29.85,North,360,0.0,0.0,89,0.00,,,0.06,,2013-03-21 10:03:00,
2013-03-21 06:12:00,24.0,21.0,29.85,North,360,0.0,0.0,89,0.00,,,0.06,,2013-03-21 10:12:00,
2013-03-21 06:23:00,24.0,21.0,29.85,North,360,0.0,0.0,89,0.00,,,0.06,,2013-03-21 10:23:00,
2013-03-21 06:34:00,25.0,22.0,29.86,West,273,0.0,1.0,89,0.00,,,0.06,,2013-03-21 10:34:00,
2013-03-21 06:42:00,25.0,22.0,29.86,West,273,0.0,1.0,89,0.00,,,0.06,,2013-03-21 10:42:00,
2013-03-21 06:53:00,24.0,21.0,29.86,West,273,0.0,0.0,89,0.00,,,0.06,,2013-03-21 10:53:00,
2013-03-21 07:03:00,25.0,22.0,29.86,West,273,0.0,0.0,89,0.00,,,0.06,,2013-03-21 11:03:00,
2013-03-21 07:13:00,25.0,22.0,29.86,West,273,0.0,0.0,89,0.00,,,0.06,,2013-03-21 11:13:00,
2013-03-21 07:23:00,25.0,22.0,29.86,West,273,0.0,0.0,88,0.00,,,0.06,,2013-03-21 11:23:00,
2013-03-21 07:33:00,25.0,22.0,29.86,SW,228,0.0,0.0,87,0.00,,,0.06,,2013-03-21 11:33:00,
2013-03-21 07:43:00,25.0,22.0,29.86,SW,228,0.0,0.0,87,0.00,,,0.06,,2013-03-21 11:43:00,
2013-03-21 07:53:00,26.0,23.0,29.87,SW,228,0.0,0.0,87,0.00,,,0.06,,2013-03-21 11:53:00,
2013-03-21 08:03:00,26.0,23.0,29.87,SW,229,0.0,0.0,87,0.00,,,0.06,,2013-03-21 12:03:00,
2013-03-21 08:12:00,26.0,23.0,29.87,SW,229,0.0,0.0,87,0.00,,,0.06,,2013-03-21 12:12:00,
2013-03-21 08:22:00,27.0,21.0,29.87,SW,228,0.0,1.0,79,0.00,,,0.06,,2013-03-21 12:22:00,
2013-03-21 08:33:00,27.0,19.0,29.87,NNE,27,0.0,2.0,72,0.00,,,0.06,,2013-03-21 12:33:00,
2013-03-21 08:43:00,27.0,19.0,29.87,NNE,27,0.0,2.0,72,0.00,,,0.06,,2013-03-21 12:43:00,
2013-03-21 08:53:00,28.0,19.0,29.86,NNE,16,0.0,4.0,69,0.00,,,0.06,,2013-03-21 12:53:00,
2013-03-21 09:03:00,28.0,18.0,29.85,NE,39,0.0,3.0,66,0.00,,,0.06,,2013-03-21 13:03:00,
2013-03-21 09:12:00,28.0,18.0,29.85,NE,39,0.0,3.0,66,0.00,,,0.06,,2013-03-21 13:12:00,
2013-03-21 09:22:00,29.0,18.0,29.85,NE,38,0.0,5.0,64,0.00,,,0.06,,2013-03-21 13:22:00,
2013-03-21 09:32:00,29.0,18.0,29.85,ENE,63,0.0,3.0,62,0.00,,,0.06,,2013-03-21 13:32:00,
2013-03-21 09:42:00,29.0,18.0,29.85,ENE,63,0.0,3.0,62,0.00,,,0.06,,2013-03-21 13:42:00,
2013-03-21 09:53:00,30.0,18.0,29.85,North,3,0.0,1.0,60,0.00,,,0.06,,2013-03-21 13:53:00,
2013-03-21 10:02:00,30.0,17.0,29.84,North,6,0.0,6.0,58,0.00,,,0.06,,2013-03-21 14:02:00,
2013-03-21 10:12:00,30.0,17.0,29.84,North,6,0.0,6.0,58,0.00,,,0.06,,2013-03-21 14:12:00,
2013-03-21 10:22:00,31.0,16.0,29.84,NNE,32,2.0,6.0,53,0.00,,,0.06,,2013-03-21 14:22:00,
2013-03-21 10:32:00,32.0,18.0,29.83,NE,36,1.0,2.0,55,0.00,,,0.06,,2013-03-21 14:32:00,
2013-03-21 10:42:00,32.0,18.0,29.83,NE,36,1.0,2.0,55,0.00,,,0.06,,2013-03-21 14:42:00,
2013-03-21 10:52:00,34.0,16.0,29.83,NE,34,0.0,3.0,48,0.00,,,0.06,,2013-03-21 14:52:00,
2013-03-21 11:03:00,34.0,17.0,29.82,NNE,19,1.0,7.0,50,0.00,,,0.06,,2013-03-21 15:03:00,
2013-03-21 11:12:00,34.0,17.0,29.82,NNE,19,1.0,7.0,50,0.00,,,0.06,,2013-03-21 15:12:00,
2013-03-21 11:22:00,33.0,15.0,29.82,NE,40,2.0,5.0,46,0.00,,,0.06,,2013-03-21 15:22:00,
2013-03-21 11:33:00,33.0,14.0,29.81,NE,49,1.0,6.0,45,0.00,,,0.06,,2013-03-21 15:33:00,
2013-03-21 11:42:00,33.0,14.0,29.81,NE,49,1.0,6.0,45,0.00,,,0.06,,2013-03-21 15:42:00,
2013-03-21 11:53:00,33.0,14.0,29.81,NE,49,1.0,6.0,45,0.00,,,0.06,,2013-03-21 15:53:00,
2013-03-21 12:03:00,35.0,16.0,29.81,NNE,28,2.0,4.0,45,0.00,,,0.06,,2013-03-21 16:03:00,
2013-03-21 12:12:00,35.0,16.0,29.81,NNE,28,2.0,4.0,45,0.00,,,0.06,,2013-03-21 16:12:00,
2013-03-21 12:23:00,35.0,14.0,29.80,NNE,16,3.0,6.0,41,0.00,,,0.06,,2013-03-21 16:23:00,
2013-03-21 12:33:00,35.0,14.0,29.80,NNE,25,1.0,5.0,42,0.00,,,0.06,,2013-03-21 16:33:00,
2013-03-21 12:42:00,35.0,14.0,29.80,NNE,25,1.0,5.0,42,0.00,,,0.06,,2013-03-21 16:42:00,
2013-03-21 12:53:00,36.0,13.0,29.78,ENE,67,2.0,4.0,39,0.00,,,0.06,,2013-03-21 16:53:00,
2013-03-21 13:02:00,36.0,12.0,29.78,NE,40,0.0,6.0,37,0.00,,,0.06,,2013-03-21 17:02:00,
2013-03-21 13:12:00,36.0,12.0,29.78,NE,40,0.0,6.0,37,0.00,,,0.06,,2013-03-21 17:12:00,
2013-03-21 13:23:00,38.0,14.0,29.76,NNE,21,0.0,3.0,37,0.00,,,0.06,,2013-03-21 17:23:00,
2013-03-21 13:33:00,38.0,12.0,29.75,NNE,23,1.0,3.0,34,0.00,,,0.06,,2013-03-21 17:33:00,
2013-03-21 13:43:00,38.0,12.0,29.75,NNE,23,1.0,3.0,34,0.00,,,0.06,,2013-03-21 17:43:00,
2013-03-21 13:53:00,37.0,13.0,29.75,NE,39,2.0,7.0,37,0.01,,,0.07,,2013-03-21 17:53:00,
2013-03-21 14:02:00,37.0,13.0,29.74,NNE,23,0.0,4.0,37,0.01,,,0.07,,2013-03-21 18:02:00,
2013-03-21 14:12:00,37.0,13.0,29.74,NNE,23,0.0,4.0,37,0.01,,,0.07,,2013-03-21 18:12:00,
2013-03-21 14:23:00,37.0,14.0,29.73,ESE,120,0.0,4.0,39,0.01,,,0.07,,2013-03-21 18:23:00,
2013-03-21 14:32:00,37.0,13.0,29.72,NNE,30,1.0,4.0,37,0.00,,,0.07,,2013-03-21 18:32:00,
2013-03-21 14:42:00,37.0,13.0,29.72,NNE,30,1.0,4.0,37,0.00,,,0.07,,2013-03-21 18:42:00,
2013-03-21 14:52:00,37.0,14.0,29.72,NNE,28,1.0,3.0,38,0.00,,,0.07,,2013-03-21 18:52:00,
2013-03-21 15:02:00,37.0,16.0,29.71,NNE,33,2.0,8.0,41,0.00,,,0.07,,2013-03-21 19:02:00,
2013-03-21 15:12:00,37.0,16.0,29.71,NNE,33,2.0,8.0,41,0.00,,,0.07,,2013-03-21 19:12:00,
2013-03-21 15:22:00,37.0,17.0,29.72,SSW,212,1.0,3.0,43,0.00,,,0.04,,2013-03-21 19:22:00,
2013-03-21 15:32:00,37.0,16.0,29.71,SW,219,0.0,3.0,42,0.00,,,0.04,,2013-03-21 19:32:00,
2013-03-21 15:43:00,37.0,16.0,29.71,SW,219,0.0,3.0,42,0.00,,,0.04,,2013-03-21 19:43:00,
2013-03-21 15:53:00,37.0,17.0,29.71,NNE,18,0.0,2.0,44,0.00,,,0.04,,2013-03-21 19:53:00,
2013-03-21 16:02:00,38.0,18.0,29.71,SE,136,0.0,2.0,43,0.00,,,0.04,,2013-03-21 20:02:00,
2013-03-21 16:13:00,38.0,18.0,29.71,SE,136,0.0,2.0,43,0.00,,,0.04,,2013-03-21 20:13:00,
2013-03-21 16:23:00,38.0,17.0,29.70,SW,221,2.0,4.0,42,0.00,,,0.02,,2013-03-21 20:23:00,
2013-03-21 16:33:00,38.0,16.0,29.70,NNE,22,1.0,1.0,40,0.00,,,0.02,,2013-03-21 20:33:00,
2013-03-21 16:42:00,38.0,16.0,29.70,NNE,22,1.0,1.0,40,0.00,,,0.02,,2013-03-21 20:42:00,
2013-03-21 16:53:00,39.0,20.0,29.69,NNE,21,0.0,0.0,46,0.00,,,0.02,,2013-03-21 20:53:00,
2013-03-21 17:03:00,38.0,17.0,29.69,SSW,212,2.0,4.0,42,0.00,,,0.02,,2013-03-21 21:03:00,
2013-03-21 17:12:00,38.0,17.0,29.69,SSW,212,2.0,4.0,42,0.00,,,0.02,,2013-03-21 21:12:00,
2013-03-21 17:23:00,38.0,19.0,29.69,SW,218,0.0,1.0,46,0.00,,,0.01,,2013-03-21 21:23:00,
2013-03-21 17:33:00,37.0,19.0,29.69,NNE,27,0.0,1.0,47,0.00,,,0.01,,2013-03-21 21:33:00,
2013-03-21 17:43:00,37.0,19.0,29.69,NNE,27,0.0,1.0,47,0.00,,,0.01,,2013-03-21 21:43:00,
2013-03-21 17:53:00,37.0,19.0,29.69,SW,222,1.0,3.0,47,0.00,,,0.01,,2013-03-21 21:53:00,
2013-03-21 18:03:00,36.0,19.0,29.69,SW,221,0.0,2.0,49,0.00,,,0.01,,2013-03-21 22:03:00,
2013-03-21 18:13:00,36.0,19.0,29.69,SW,221,0.0,2.0,49,0.00,,,0.01,,2013-03-21 22:13:00,
2013-03-21 18:23:00,36.0,20.0,29.69,SW,225,0.0,1.0,51,0.00,,,0.01,,2013-03-21 22:23:00,
2013-03-21 18:33:00,35.0,21.0,29.69,SW,225,0.0,1.0,56,0.00,,,0.01,,2013-03-21 22:33:00,
2013-03-21 18:42:00,35.0,21.0,29.69,SW,225,0.0,1.0,56,0.00,,,0.01,,2013-03-21 22:42:00,
2013-03-21 18:53:00,35.0,20.0,29.69,SW,229,0.0,1.0,53,0.00,,,0.01,,2013-03-21 22:53:00,
2013-03-21 19:02:00,34.0,20.0,29.70,SW,229,0.0,1.0,57,0.00,,,0.01,,2013-03-21 23:02:00,
2013-03-21 19:12:00,34.0,20.0,29.70,SW,229,0.0,1.0,57,0.00,,,0.01,,2013-03-21 23:12:00,
2013-03-21 19:22:00,33.0,21.0,29.70,SW,230,0.0,1.0,62,0.00,,,0.01,,2013-03-21 23:22:00,
2013-03-21 19:33:00,32.0,22.0,29.71,SW,231,0.0,0.0,65,0.00,,,0.01,,2013-03-21 23:33:00,
2013-03-21 19:43:00,32.0,22.0,29.71,SW,231,0.0,0.0,65,0.00,,,0.01,,2013-03-21 23:43:00,
2013-03-21 19:53:00,31.0,21.0,29.71,SW,231,0.0,0.0,67,0.00,,,0.01,,2013-03-21 23:53:00,
2013-03-21 20:03:00,31.0,21.0,29.72,ENE,70,0.0,1.0,65,0.00,,,0.01,,2013-03-22 00:03:00,
2013-03-21 20:12:00,31.0,21.0,29.72,ENE,70,0.0,1.0,65,0.00,,,0.01,,2013-03-22 00:12:00,
2013-03-21 20:22:00,32.0,17.0,29.72,ENE,70,0.0,2.0,54,0.00,,,0.01,,2013-03-22 00:22:00,
2013-03-21 20:32:00,32.0,15.0,29.72,ESE,103,0.0,1.0,50,0.00,,,0.01,,2013-03-22 00:32:00,
2013-03-21 20:42:00,32.0,15.0,29.72,ESE,103,0.0,1.0,50,0.00,,,0.01,,2013-03-22 00:42:00,
2013-03-21 20:52:00,32.0,14.0,29.73,ENE,78,1.0,5.0,46,0.00,,,0.01,,2013-03-22 00:52:00,
2013-03-21 21:03:00,31.0,12.0,29.73,North,1,1.0,4.0,45,0.00,,,0.01,,2013-03-22 01:03:00,
2013-03-21 21:12:00,31.0,12.0,29.73,North,1,1.0,4.0,45,0.00,,,0.01,,2013-03-22 01:12:00,
2013-03-21 21:22:00,31.0,14.0,29.73,NNE,13,1.0,4.0,48,0.00,,,0.01,,2013-03-22 01:22:00,
2013-03-21 21:32:00,31.0,13.0,29.74,East,87,0.0,1.0,46,0.00,,,0.01,,2013-03-22 01:32:00,
2013-03-21 21:43:00,31.0,13.0,29.74,East,87,0.0,1.0,46,0.00,,,0.01,,2013-03-22 01:43:00,
2013-03-21 21:53:00,31.0,13.0,29.74,NNW,338,0.0,3.0,47,0.00,,,0.01,,2013-03-22 01:53:00,
2013-03-21 22:02:00,30.0,11.0,29.74,NE,38,2.0,5.0,45,0.00,,,0.01,,2013-03-22 02:02:00,
2013-03-21 22:12:00,30.0,11.0,29.74,NE,38,2.0,5.0,45,0.00,,,0.01,,2013-03-22 02:12:00,
2013-03-21 22:22:00,30.0,13.0,29.74,NNE,28,0.0,6.0,48,0.00,,,0.01,,2013-03-22 02:22:00,
2013-03-21 22:32:00,30.0,11.0,29.75,NNE,33,0.0,3.0,45,0.00,,,0.01,,2013-03-22 02:32:00,
2013-03-21 22:43:00,30.0,11.0,29.75,NNE,33,0.0,3.0,45,0.00,,,0.01,,2013-03-22 02:43:00,
2013-03-21 23:02:00,29.0,11.0,29.75,East,80,0.0,3.0,46,0.00,,,0.01,,2013-03-22 03:02:00,
2013-03-21 23:12:00,29.0,11.0,29.75,East,80,0.0,3.0,46,0.00,,,0.01,,2013-03-22 03:12:00,
2013-03-21 23:22:00,29.0,12.0,29.76,ENE,75,0.0,3.0,48,0.00,,,0.01,,2013-03-22 03:22:00,
2013-03-21 23:33:00,29.0,12.0,29.76,NNE,25,0.0,3.0,48,0.00,,,0.01,,2013-03-22 03:33:00,
2013-03-21 23:43:00,29.0,12.0,29.76,NNE,25,0.0,3.0,48,0.00,,,0.01,,2013-03-22 03:43:00,
2013-03-21 23:53:00,28.0,11.0,29.76,East,85,0.0,2.0,48,0.00,,,0.01,,2013-03-22 03:53:00,